Owen Roberts, Cayman Islands

11:42 AM EST on April 29, 2017 (GMT -0500)
Roberts International

Weather History for MWCR - July, 2013

Change the Weather History Date:

Monday, July 8, 2013

  Actual Average Record
Temperature  
Mean Temperature 84 °F -  
Max Temperature 89 °F 87 °F 91 °F (2002)
Min Temperature 79 °F 78 °F 77 °F (1998)
Cooling Degree Days 19    
Growing Degree Days 34 (Base 50)    
Moisture  
Dew Point 77 °F    
Average Humidity 75    
Maximum Humidity 89    
Minimum Humidity 59    
Precipitation  
Precipitation 0.00 in - - ()
Sea Level Pressure  
Sea Level Pressure 30.00 in    
Wind  
Wind Speed 8 mph ()    
Max Wind Speed 14 mph    
Max Gust Speed -    
Visibility 6.2 miles    
Events      
Averages and records for this station are not official NWS values.
T = Trace of Precipitation, MM = Missing Value Source: Averaged Metar Reports

Daily Weather History Graph

Daily Weather History Graph

Search for Another Location

Airport or City:

Trip Planner

Search our weather history database for the weather conditions in past years. The results will help you decide how hot, cold, wet, or windy it might be!

Date:

Astronomy

Jul. 08, 2013 Rise Set
Actual Time 5:53 AM EST 7:07 PM EST
Civil Twilight 5:29 AM EST 7:31 PM EST
Nautical Twilight 5:00 AM EST 8:00 PM EST
Astronomical Twilight 4:30 AM EST 8:30 PM EST
Moon 6:10 AM EST (7/8) 7:23 PM EST (7/8)
Length of Visible Light 14h 02m
Length of Day
13h 14m
New Moon, 0% of the Moon is Illuminated
Jul 8
New Moon
Jul 15
First Quarter
Jul 22
Full
Jul 29
Last Quarter
Aug 6
New

Hourly Weather History & Observations

Time (EST) Temp. Heat Index Dew Point Humidity Pressure Visibility Wind Dir Wind Speed Gust Speed Precip Events Conditions
6:30 AM 80.6 °F 87.1 °F 77.0 °F 89% 29.98 in 6.2 mi East 4.6 mph - N/A   Scattered Clouds
7:00 AM 82 °F - 77 °F 81% 29.99 in 6 mi East 4.6 mph - -   Partly Cloudy
7:00 AM 82.4 °F 90.9 °F 77.0 °F 84% 29.98 in 6.2 mi East 4.6 mph - N/A   Mostly Cloudy
8:00 AM 84.2 °F 94.1 °F 77.0 °F 79% 29.98 in 6.2 mi East 10.4 mph - N/A   Mostly Cloudy
9:00 AM 86.0 °F 99.3 °F 78.8 °F 79% 30.01 in 6.2 mi East 12.7 mph - N/A   Scattered Clouds
10:00 AM 86.0 °F 99.3 °F 78.8 °F 79% 30.01 in 6.2 mi ENE 13.8 mph - N/A   Mostly Cloudy
11:00 AM 87.8 °F 97.6 °F 75.2 °F 66% 30.01 in 6.2 mi ESE 10.4 mph - N/A   Scattered Clouds
12:00 PM 87.8 °F 99.7 °F 77.0 °F 70% 30.01 in 6.2 mi East 12.7 mph - N/A   Scattered Clouds
1:00 PM 89 °F - 77 °F 59% 30.01 in 6 mi East 11.5 mph - -   Partly Cloudy
1:00 PM 87.8 °F 99.7 °F 77.0 °F 70% 30.01 in 6.2 mi East 11.5 mph - N/A   Scattered Clouds
2:00 PM 87.8 °F 97.6 °F 75.2 °F 66% 29.98 in 6.2 mi ESE 12.7 mph - N/A   Partly Cloudy
3:00 PM 87.8 °F 99.7 °F 77.0 °F 70% 29.98 in 6.2 mi ESE 11.5 mph - N/A   Scattered Clouds
4:00 PM 87.8 °F 99.7 °F 77.0 °F 70% 29.98 in 6.2 mi East 11.5 mph - N/A   Scattered Clouds
5:00 PM 86.0 °F 96.9 °F 77.0 °F 74% 29.98 in 6.2 mi ESE 12.7 mph - N/A   Partly Cloudy
6:00 PM 86.0 °F 96.9 °F 77.0 °F 74% 29.98 in 6.2 mi East 9.2 mph - N/A   Partly Cloudy
7:00 PM 84 °F - 77 °F 74% 29.99 in 6 mi East 6.9 mph - -   Mostly Cloudy
7:00 PM - - - N/A% - - East 6.9 mph - N/A   Unknown
8:00 PM 84.2 °F 94.1 °F 77.0 °F 79% 30.01 in 6.2 mi East 6.9 mph - N/A   Partly Cloudy
9:00 PM 82.4 °F 90.9 °F 77.0 °F 84% 30.01 in 6.2 mi East 6.9 mph - N/A   Clear
10:00 PM 82.4 °F 90.9 °F 77.0 °F 84% 30.04 in 6.2 mi East 5.8 mph - N/A   Clear